Temperature
2 2 2 2 2 2 2 4 4 5 4 5 4 3 3 1 1 0 -0 -1 -1 -1 -1 -2 -2 -2 -2 -2 -1 -2 -2 -2 -2 -2 -2 -2 -2 -3 -2 -2 -2 -2 -2 -2
1 1 0 1 1 1 2 2 3 3 3 4 3 2 1 1 0 -0 -1 -1 -1 -2 -2 -2 -2 -2 -2 -2 -2 -2 -2 -2 -3 -3 -3 -3 -3 -3 -3 -3 -3 -3 -2 -3
3 0 0 2 2 1 1 1 2 3 3 3 2 1 1 0 -0 -0 -1 -1 -2 -2 -2 -2 -2 -2 -2 -2 -2 -3 -3 -3 -3 -3 -3 -3 -3 -3 -3 -3 -3 -3 -3 -3
2 1 3 4 1 1 1 0 0 1 1 1 0 -0 -1 -1 -1 -1 -1 -2 -2 -2 -2 -2 -2 -2 -3 -3 -3 -3 -3 -3 -3 -3 -3 -3 -3 -4 -3 -3 -3 -3 -3 -3
1 2 3 3 0 -1 -1 0 -0 -0 -0 -0 -1 -1 -1 -1 -1 -2 -2 -2 -2 -2 -2 -3 -3 -3 -3 -3 -3 -3 -4 -4 -4 -4 -4 -4 -4 -4 -4 -4 -4 -4 -3 -3
0 2 3 3 -0 -2 -1 1 0 -1 -1 -2 -2 1 1 -2 -2 -2 -2 -3 -3 -3 -3 -3 -3 -3 -3 -4 -4 -4 -4 -4 -4 -4 -4 -4 -4 -4 -4 -4 -4 -4 -4 -4
0 2 3 1 -2 -2 2 2 -1 -2 -2 -3 -3 -1 -2 -2 -3 -3 -3 -3 -3 -3 -3 -3 -4 -4 -4 -4 -4 -4 -4 -4 -4 -4 -4 -4 -4 -4 -4 -4 -4 -4 -4 -4
0 1 2 -1 -2 -0 1 -1 -1 -2 -2 -3 -3 -3 -3 -3 -3 -3 -3 -4 -4 -4 -4 -4 -4 -4 -4 -4 -5 -5 -5 -5 -5 -5 -5 -5 -5 -5 -5 -5 -5 -5 -5 -5
0 2 -0 -2 -2 -1 -1 -2 -2 -2 -2 -2 -3 -3 -3 -3 -4 -4 -4 -4 -4 -4 -4 -4 -4 -5 -5 -5 -5 -5 -5 -5 -5 -5 -5 -5 -5 -5 -5 -5 -5 -5 -5 -5
-2 -1 -2 -3 -2 -2 -2 -2 -2 -2 -3 -3 -3 -3 -3 -4 -4 -4 -4 -4 -4 -4 -4 -5 -5 -5 -5 -5 -5 -5 -5 -5 -5 -5 -6 -6 -6 -6 -6 -6 -6 -6 -6 -6
-3 -2 -3 -2 -2 -2 -2 -2 -2 -3 -3 -3 -3 -3 -4 -4 -4 -4 -4 -5 -5 -5 -5 -5 -5 -5 -5 -5 -5 -5 -6 -6 -6 -6 -6 -6 -6 -6 -6 -6 -6 -6 -6 -6
-0 -1 -2 -1 -1 -2 -2 -2 -3 -3 -3 -3 -3 -4 -4 -4 -4 -5 -5 -5 -5 -5 -5 -5 -5 -6 -6 -6 -6 -6 -6 -6 -6 -6 -6 -6 -6 -6 -6 -6 -6 -6 -6 -6
-2 -2 -2 -2 -2 -2 -3 -3 -3 -3 -4 -4 -4 -4 -4 -4 -5 -5 -5 -5 -5 -5 -6 -6 -6 -6 -6 -6 -6 -6 -6 -6 -6 -7 -7 -7 -7 -7 -6 -6 -6 -6 -6 -6
-3 -3 -3 -2 -3 -3 -3 -3 -3 -4 -4 -4 -4 -4 -5 -5 -5 -5 -5 -5 -6 -6 -6 -6 -6 -6 -6 -6 -7 -7 -7 -7 -7 -7 -7 -7 -7 -7 -7 -7 -7 -6 -6 -6
-3 -3 -3 -3 -3 -3 -3 -4 -4 -4 -4 -4 -5 -5 -5 -5 -5 -5 -6 -6 -6 -6 -6 -6 -7 -7 -7 -7 -7 -7 -7 -7 -7 -7 -7 -7 -7 -7 -7 -7 -7 -7 -6 -6
-3 -3 -3 -4 -4 -4 -4 -4 -4 -4 -4 -5 -5 -5 -5 -5 -5 -6 -6 -6 -6 -6 -6 -7 -7 -7 -7 -7 -7 -7 -7 -7 -7 -7 -7 -7 -7 -7 -7 -7 -7 -7 -7 -7
-4 -4 -4 -4 -4 -4 -4 -4 -4 -5 -5 -5 -5 -5 -5 -6 -6 -6 -6 -6 -6 -7 -7 -7 -7 -7 -7 -7 -8 -8 -8 -8 -8 -8 -8 -8 -8 -8 -8 -8 -8 -7 -7 -7
-3 -3 -4 -4 -4 -4 -4 -4 -5 -5 -5 -5 -5 -5 -6 -6 -6 -6 -6 -7 -7 -7 -7 -7 -7 -8 -8 -8 -8 -8 -8 -8 -8 -8 -8 -8 -8 -8 -8 -8 -8 -8 -7 -7
-4 -4 -4 -4 -4 -4 -4 -5 -5 -5 -5 -5 -5 -5 -6 -6 -6 -6 -7 -7 -7 -7 -7 -7 -8 -8 -8 -8 -8 -8 -8 -8 -8 -8 -8 -8 -8 -8 -8 -8 -8 -8 -8 -8
-4 -4 -4 -4 -5 -5 -5 -5 -5 -5 -5 -6 -6 -6 -6 -6 -6 -7 -7 -7 -7 -7 -7 -7 -8 -8 -8 -8 -8 -8 -8 -8 -8 -8 -8 -8 -8 -8 -8 -8 -8 -8 -8 -8
-4 -4 -4 -5 -5 -5 -5 -5 -5 -5 -5 -6 -6 -6 -6 -6 -7 -7 -7 -7 -7 -7 -7 -8 -8 -8 -8 -8 -8 -8 -8 -8 -8 -8 -8 -8 -8 -8 -8 -8 -8 -8 -8 -8
-4 -5 -5 -5 -5 -5 -5 -5 -5 -5 -6 -6 -6 -6 -6 -7 -7 -7 -7 -7 -7 -7 -7 -8 -8 -8 -8 -8 -8 -8 -8 -8 -9 -9 -9 -9 -9 -9 -9 -9 -9 -9 -8 -8
-5 -5 -5 -5 -5 -5 -5 -6 -6 -6 -6 -6 -6 -6 -6 -7 -7 -7 -7 -7 -7 -7 -8 -8 -8 -8 -8 -8 -8 -8 -8 -9 -9 -9 -9 -9 -9 -9 -9 -9 -9 -9 -9 -9
-5 -5 -5 -5 -6 -6 -6 -6 -6 -6 -6 -6 -7 -7 -7 -7 -7 -7 -7 -7 -7 -8 -8 -8 -8 -8 -8 -8 -8 -8 -9 -9 -9 -9 -9 -9 -9 -8 -8 -9 -9 -9 -9 -9
-6 -6 -6 -6 -6 -6 -6 -6 -6 -6 -7 -7 -7 -7 -7 -7 -7 -7 -7 -7 -8 -8 -8 -8 -8 -8 -8 -8 -8 -9 -9 -9 -9 -9 -9 -9 -9 -8 -8 -8 -8 -8 -9 -9
-6 -6 -6 -6 -6 -6 -7 -7 -7 -7 -7 -7 -7 -7 -7 -7 -7 -8 -8 -8 -8 -8 -8 -8 -8 -8 -8 -8 -9 -9 -9 -9 -9 -9 -9 -9 -9 -9 -9 -9 -8 -9 -9 -9
-6 -6 -6 -7 -7 -7 -7 -7 -7 -7 -7 -7 -7 -7 -7 -8 -8 -8 -8 -8 -8 -8 -8 -8 -8 -8 -8 -9 -9 -9 -9 -9 -9 -9 -9 -9 -9 -9 -9 -9 -9 -9 -9 -9
Wind_Speed
5 4 3 6 7 9 11 11 10 11 12 12 10 9 8 7 6 5 4 4 4 4 4 3 3 3 2 3 2 2 2 3 4 4 4 4 4 4 4 4 4 5 5 5
4 3 4 6 9 10 12 11 13 14 15 10 9 8 8 7 6 6 5 5 5 4 4 4 3 3 3 3 2 2 3 3 4 3 4 4 4 4 4 4 5 4 5 5
4 2 3 8 8 10 8 8 8 12 10 9 8 9 9 7 7 7 7 6 5 5 4 4 3 3 3 3 2 2 3 3 4 3 4 4 4 4 4 5 5 5 5 5
2 1 7 3 1 5 7 8 8 8 9 9 10 9 8 6 7 8 7 6 5 4 4 3 3 2 2 2 2 2 3 3 4 4 4 4 4 5 5 5 5 5 5 5
2 4 7 4 2 2 4 7 6 8 11 10 8 7 5 4 6 7 6 5 4 4 3 2 2 2 2 2 2 3 3 4 4 4 4 4 5 5 5 5 5 5 5 5
3 4 6 1 2 0 2 5 1 4 7 7 5 5 4 6 6 6 4 3 2 2 2 1 1 1 2 2 3 3 4 4 4 4 4 5 5 5 5 4 5 5 5 5
5 6 6 1 1 2 3 3 3 4 5 4 4 5 6 7 6 4 3 2 2 1 1 1 1 1 2 2 3 4 4 4 4 4 4 4 4 4 4 4 4 4 5 5
5 6 6 2 3 4 3 3 3 4 3 4 5 6 6 5 5 4 3 3 2 1 2 2 1 1 2 3 3 4 4 4 4 4 4 4 4 4 4 4 4 4 4 5
7 5 2 3 4 3 2 3 4 4 4 4 4 5 4 4 4 3 3 2 2 2 2 2 2 2 3 3 3 3 4 4 4 4 4 4 4 4 4 3 3 3 4 4
5 7 5 5 5 5 4 5 5 4 4 4 5 5 4 3 3 3 3 2 2 2 2 3 3 3 3 3 3 3 4 4 4 4 4 4 3 3 3 3 3 3 4 4
6 6 5 5 6 5 5 5 5 5 4 5 5 4 4 3 3 3 3 2 2 2 2 3 3 3 3 3 3 3 4 4 4 4 4 3 3 3 4 4 4 4 4 4
6 5 4 5 4 4 5 5 5 4 4 4 4 4 4 3 3 2 2 2 2 2 2 3 3 3 3 3 3 3 3 3 3 3 3 3 3 4 4 5 6 6 6 6
5 3 4 6 5 4 5 5 5 4 4 4 4 3 3 3 2 2 2 2 2 2 2 3 3 3 4 3 3 3 3 3 3 3 3 3 3 4 4 4 5 5 6 7
5 3 5 4 4 4 4 4 3 3 3 3 3 3 2 2 2 2 2 2 2 2 2 2 3 4 4 3 3 3 3 4 3 3 3 3 3 4 4 4 4 4 4 6
5 5 5 4 4 4 3 2 3 3 3 2 2 2 2 3 3 2 2 1 1 2 2 2 3 4 4 3 3 3 3 3 3 3 3 3 3 3 3 4 4 4 4 4
4 4 5 5 5 4 3 3 4 4 3 3 3 3 3 3 2 2 1 1 2 2 3 3 4 4 3 3 3 3 3 4 4 3 3 3 3 3 3 3 3 3 3 4
3 4 4 5 6 6 5 5 5 5 4 4 4 3 2 2 1 1 1 2 2 3 3 3 4 4 3 3 3 3 3 3 4 3 3 3 3 3 3 3 3 3 4 4
6 6 6 6 6 6 6 5 5 4 4 4 3 2 2 3 3 2 2 2 2 3 3 3 3 3 3 3 3 3 3 3 3 3 3 3 3 3 3 3 4 4 4 3
5 5 6 6 6 5 5 5 5 4 3 3 3 3 3 3 3 2 2 2 2 3 3 3 4 3 3 3 3 3 3 3 3 3 3 3 3 3 3 3 3 3 3 3
4 4 4 4 4 4 4 4 4 3 3 3 3 3 3 2 2 2 2 3 3 3 3 4 3 3 3 3 3 2 3 3 3 3 3 3 3 3 3 3 3 3 3 3
4 4 3 3 3 3 3 3 3 3 3 3 4 4 3 3 2 2 2 3 2 2 3 3 3 3 3 3 3 2 2 3 3 3 3 3 3 3 3 3 3 3 3 3
3 3 3 3 3 3 2 2 3 3 3 3 3 3 3 2 2 2 3 3 2 3 2 2 3 3 3 3 2 2 2 3 3 3 3 3 3 3 3 3 3 3 3 3
3 3 3 3 3 2 2 2 2 3 3 3 3 3 3 3 3 2 2 2 2 3 3 2 4 5 4 2 2 2 2 3 3 3 3 3 3 3 3 4 3 3 3 3
3 2 2 2 1 1 1 1 1 1 2 2 3 3 3 2 2 2 2 3 3 3 2 3 4 4 2 1 1 2 2 2 3 3 3 3 3 3 3 3 3 3 3 3
2 2 2 1 2 2 2 1 1 1 1 1 2 2 2 2 2 2 2 2 3 3 2 3 3 3 2 1 1 2 2 2 3 3 3 3 3 3 3 3 3 3 3 3
2 2 2 2 2 1 1 1 1 1 1 1 1 1 1 1 1 2 2 2 2 2 2 2 2 2 2 2 2 2 2 3 3 3 3 3 3 3 3 3 3 3 3 3
1 1 1 1 1 1 1 2 2 2 2 2 2 1 1 1 1 1 2 1 1 1 2 1 2 2 2 2 2 2 2 2 2 3 3 3 3 3 3 3 3 3 3 3
Wind_Direction
267 280 259 247 236 217 221 235 248 265 270 281 291 297 301 301 294 287 278 267 259 258 256 249 257 270 276 286 286 277 278 286 292 298 299 300 296 298 302 300 299 297 292 288
257 258 261 261 249 233 235 244 254 271 278 287 296 298 297 294 285 276 271 269 266 263 259 251 253 263 274 279 286 281 277 287 299 299 297 298 301 298 297 298 300 297 292 291
246 285 279 257 235 219 228 235 246 256 272 301 302 302 301 297 287 280 277 271 262 259 258 254 254 258 263 271 279 278 281 286 292 295 300 301 302 296 296 294 295 293 290 288
240 250 245 248 162 217 233 251 243 259 283 300 302 305 301 295 291 288 287 278 267 264 266 261 259 263 270 274 267 268 276 281 284 288 292 300 300 293 290 291 290 289 289 288
205 247 270 275 210 188 230 269 242 258 283 300 317 303 287 303 301 293 290 280 272 269 261 255 254 257 265 267 268 273 278 281 285 284 286 290 293 294 293 291 289 290 289 287
202 235 252 260 113 278 242 266 247 270 289 309 322 297 315 344 325 317 314 302 294 287 271 251 268 254 245 258 266 276 283 285 287 284 284 282 285 290 295 294 293 297 294 290
218 242 265 274 151 181 230 294 332 290 291 287 273 288 317 323 325 327 329 333 338 320 283 287 295 265 259 268 278 289 292 290 289 285 283 282 286 290 292 293 297 299 299 299
202 225 250 146 158 207 272 328 305 299 289 271 279 300 313 319 325 334 340 349 355 346 333 333 316 284 280 286 296 299 295 292 291 290 288 286 285 288 290 291 293 297 300 303
210 232 309 189 224 258 294 287 294 296 289 276 278 290 306 315 319 325 330 338 346 347 340 340 329 302 289 301 307 303 297 294 296 299 294 287 281 283 287 288 286 290 293 298
250 264 268 248 251 262 265 273 285 287 281 267 271 282 296 304 307 312 317 324 332 337 331 327 326 316 301 305 304 300 298 298 299 297 296 294 287 281 280 279 282 287 290 294
251 270 283 257 241 261 277 280 284 286 272 267 268 275 280 286 289 294 303 308 309 307 306 315 324 323 321 315 308 302 299 299 301 296 293 297 295 291 284 279 280 281 283 286
240 237 238 266 267 267 264 272 277 280 282 278 260 264 271 274 276 280 288 296 301 304 307 312 317 320 324 320 310 301 297 298 299 299 301 300 301 303 294 282 290 287 288 291
252 260 260 274 284 269 261 273 276 267 266 275 271 259 260 268 271 271 274 281 286 294 299 307 313 315 320 318 309 297 293 297 300 301 301 301 301 302 309 309 294 286 289 293
246 253 265 259 272 283 277 278 275 271 270 269 270 265 259 264 264 260 267 278 285 290 295 301 304 308 314 314 308 301 295 294 294 294 296 296 293 293 296 302 309 314 309 304
245 241 248 274 284 287 285 277 274 275 280 284 271 254 247 248 253 266 277 282 276 278 286 295 299 305 313 308 303 297 294 295 297 295 293 292 294 293 295 297 301 307 315 322
264 256 249 256 268 275 274 266 261 265 269 272 267 259 252 251 257 263 261 241 245 267 281 287 291 301 305 303 299 292 288 295 300 296 294 294 294 294 296 298 301 305 308 314
227 254 255 267 271 271 263 256 253 254 257 257 258 256 242 235 241 254 268 265 264 269 274 275 287 299 300 298 292 288 292 296 300 297 295 295 292 290 290 291 294 297 301 307
233 244 246 255 258 259 262 260 253 249 249 253 250 230 219 219 236 256 271 279 283 286 285 286 293 298 296 296 289 283 285 290 295 294 292 287 287 285 285 287 291 292 298 303
246 251 255 256 254 247 248 250 250 249 245 229 222 227 233 236 241 253 258 257 263 279 293 297 301 301 293 291 295 275 275 283 290 291 289 289 289 288 286 287 290 292 296 297
259 260 261 264 256 237 240 246 245 243 234 215 214 222 234 241 236 241 246 250 254 271 285 291 295 290 289 288 290 276 272 276 282 286 288 289 293 295 294 292 292 292 293 294
267 268 264 261 263 253 236 229 225 232 233 215 211 220 233 243 233 230 237 260 274 280 282 286 291 287 289 287 279 278 280 280 282 284 285 288 292 296 296 295 292 291 290 290
262 260 261 257 255 263 257 233 221 219 220 221 220 217 222 236 239 245 245 248 267 285 296 283 284 284 290 280 274 274 276 281 283 285 284 284 285 289 292 294 293 292 289 287
263 256 255 250 246 260 271 242 216 208 214 221 220 219 225 237 236 237 260 254 267 283 294 281 290 296 295 272 269 269 273 278 283 285 286 286 283 283 284 285 285 286 287 288
269 264 261 255 225 225 257 273 250 232 229 239 233 225 223 235 250 242 252 260 276 288 287 288 300 315 328 297 269 271 273 276 280 281 284 288 288 288 286 284 284 285 285 288
263 252 236 219 221 239 254 264 273 239 235 254 257 247 236 234 237 254 262 257 269 287 291 291 305 321 323 296 282 278 278 278 282 286 283 285 289 291 294 295 294 295 295 292
254 248 247 244 238 238 233 222 232 241 244 263 284 278 273 261 240 247 253 257 265 278 285 282 286 296 297 295 292 288 284 286 288 287 285 285 287 290 294 298 304 304 305 305
265 255 255 269 256 232 229 225 229 240 239 240 269 275 279 279 260 250 250 254 265 270 274 279 281 284 292 296 298 298 294 290 288 287 287 288 290 292 297 299 301 305 308 312
Height
1511 1511 1512 1510 1509 1510 1510 1501 1497 1487 1489 1485 1487 1487 1487 1486 1484 1483 1482 1482 1481 1480 1480 1480 1479 1479 1479 1478 1478 1477 1476 1475 1474 1473 1472 1471 1470 1469 1468 1467 1466 1465 1464 1464
1513 1512 1513 1510 1507 1506 1505 1502 1497 1493 1489 1486 1487 1486 1485 1483 1482 1481 1480 1479 1478 1477 1477 1477 1477 1476 1476 1476 1475 1474 1473 1472 1471 1470 1469 1468 1467 1466 1465 1464 1464 1463 1462 1461
1502 1512 1510 1499 1497 1500 1499 1497 1495 1490 1486 1485 1484 1483 1482 1481 1480 1478 1477 1476 1475 1475 1474 1474 1474 1474 1473 1473 1472 1471 1471 1470 1469 1468 1466 1465 1464 1463 1463 1462 1461 1460 1459 1458
1505 1509 1499 1489 1495 1495 1495 1493 1492 1489 1486 1485 1484 1482 1480 1478 1477 1476 1475 1473 1473 1472 1471 1471 1471 1471 1471 1470 1469 1469 1468 1467 1466 1465 1464 1463 1462 1461 1460 1459 1458 1457 1456 1455
1505 1498 1488 1489 1494 1495 1495 1489 1488 1487 1484 1483 1482 1479 1476 1475 1474 1473 1472 1471 1470 1470 1469 1469 1469 1469 1468 1467 1467 1466 1465 1464 1464 1462 1461 1460 1459 1458 1457 1457 1455 1454 1453 1452
1505 1496 1486 1484 1492 1493 1494 1485 1484 1484 1483 1482 1481 1477 1474 1473 1472 1470 1469 1468 1467 1467 1466 1466 1466 1466 1466 1465 1465 1464 1463 1462 1461 1460 1458 1457 1456 1456 1455 1454 1453 1452 1450 1449
1501 1494 1485 1488 1491 1493 1488 1481 1483 1482 1481 1480 1480 1478 1476 1472 1470 1469 1467 1466 1465 1465 1465 1464 1464 1464 1463 1463 1462 1461 1460 1459 1458 1457 1456 1455 1454 1453 1452 1451 1450 1449 1448 1447
1498 1494 1486 1488 1490 1488 1483 1482 1481 1480 1479 1478 1477 1475 1473 1471 1469 1467 1466 1465 1464 1463 1463 1463 1462 1462 1461 1460 1460 1459 1457 1456 1455 1454 1453 1452 1451 1450 1449 1448 1447 1446 1445 1444
1491 1486 1485 1485 1484 1483 1482 1481 1480 1479 1477 1476 1474 1472 1471 1469 1468 1466 1465 1464 1463 1462 1462 1461 1461 1460 1459 1458 1457 1456 1455 1454 1452 1451 1451 1450 1448 1447 1446 1445 1444 1443 1442 1441
1491 1484 1483 1482 1481 1481 1480 1479 1478 1477 1475 1474 1472 1470 1469 1468 1466 1465 1464 1463 1462 1461 1460 1460 1459 1458 1457 1456 1455 1454 1452 1451 1450 1449 1448 1447 1446 1445 1444 1443 1441 1440 1439 1438
1487 1483 1481 1479 1478 1478 1477 1476 1475 1474 1472 1471 1470 1468 1467 1466 1465 1464 1463 1462 1461 1460 1459 1458 1457 1456 1455 1454 1453 1451 1450 1449 1447 1446 1446 1444 1443 1442 1441 1440 1439 1438 1437 1436
1477 1477 1478 1476 1475 1475 1474 1473 1472 1471 1469 1468 1467 1466 1465 1464 1463 1462 1461 1460 1459 1458 1457 1456 1455 1454 1453 1452 1450 1449 1448 1447 1446 1444 1443 1442 1441 1440 1438 1437 1436 1435 1434 1434
1475 1474 1474 1473 1472 1472 1471 1470 1469 1468 1467 1466 1464 1463 1462 1461 1461 1460 1459 1458 1457 1456 1455 1454 1453 1452 1451 1449 1448 1447 1446 1445 1444 1442 1441 1440 1439 1437 1436 1435 1434 1433 1432 1431
1472 1472 1471 1470 1470 1469 1468 1467 1466 1465 1464 1463 1462 1461 1460 1459 1458 1458 1457 1456 1455 1454 1453 1452 1451 1450 1449 1448 1446 1445 1444 1443 1442 1440 1439 1438 1437 1435 1434 1433 1431 1430 1429 1428
1468 1468 1468 1467 1466 1465 1464 1463 1462 1461 1460 1460 1459 1458 1457 1457 1456 1455 1455 1454 1454 1453 1452 1450 1449 1448 1447 1446 1445 1443 1442 1441 1440 1438 1437 1436 1435 1434 1432 1431 1430 1428 1427 1426
1465 1465 1464 1463 1463 1462 1461 1460 1459 1458 1457 1457 1456 1456 1455 1455 1454 1453 1453 1452 1451 1451 1450 1449 1447 1447 1445 1444 1443 1442 1440 1439 1438 1436 1435 1434 1433 1431 1430 1429 1428 1426 1425 1424
1462 1461 1460 1459 1459 1458 1457 1456 1456 1455 1454 1454 1453 1453 1452 1452 1452 1451 1451 1450 1449 1449 1448 1447 1446 1445 1443 1442 1441 1440 1438 1437 1436 1435 1433 1432 1431 1429 1428 1427 1426 1425 1424 1423
1458 1458 1457 1456 1455 1454 1453 1453 1452 1452 1451 1451 1450 1450 1450 1450 1449 1449 1448 1448 1447 1446 1446 1445 1444 1442 1441 1440 1439 1438 1437 1435 1434 1433 1431 1430 1429 1428 1426 1425 1424 1423 1422 1421
1455 1454 1453 1453 1452 1451 1450 1450 1449 1449 1449 1448 1448 1447 1447 1447 1447 1447 1446 1446 1445 1444 1443 1442 1441 1440 1439 1438 1437 1436 1435 1434 1432 1431 1429 1428 1427 1426 1424 1423 1422 1421 1420 1420
1451 1451 1450 1449 1449 1448 1448 1447 1447 1446 1446 1445 1445 1445 1445 1445 1445 1444 1444 1443 1443 1442 1441 1440 1439 1438 1437 1436 1435 1434 1433 1431 1430 1429 1427 1426 1425 1424 1422 1421 1420 1419 1419 1418
1448 1448 1447 1446 1446 1445 1445 1444 1444 1444 1443 1443 1443 1443 1443 1443 1443 1442 1442 1441 1441 1440 1439 1438 1437 1436 1435 1434 1433 1432 1430 1429 1428 1427 1426 1424 1423 1422 1421 1419 1418 1417 1417 1416
1445 1445 1444 1443 1443 1443 1442 1442 1442 1441 1441 1441 1441 1440 1440 1440 1440 1440 1440 1439 1439 1438 1437 1436 1435 1434 1433 1432 1431 1429 1428 1427 1426 1425 1424 1422 1421 1420 1419 1418 1417 1416 1415 1414
1443 1442 1442 1441 1440 1440 1440 1439 1439 1439 1439 1438 1438 1438 1438 1438 1438 1438 1437 1437 1437 1436 1435 1434 1433 1432 1431 1430 1429 1427 1426 1425 1424 1423 1422 1421 1420 1418 1417 1416 1415 1414 1413 1412
1440 1440 1439 1439 1438 1438 1437 1437 1437 1437 1437 1437 1437 1436 1436 1436 1436 1435 1435 1435 1434 1434 1433 1432 1432 1430 1429 1428 1427 1426 1425 1423 1422 1421 1420 1419 1418 1417 1416 1415 1413 1412 1412 1411
1438 1437 1437 1436 1436 1435 1435 1435 1435 1435 1435 1435 1435 1435 1434 1434 1434 1433 1433 1433 1432 1432 1431 1431 1430 1428 1427 1426 1425 1424 1423 1422 1421 1420 1418 1417 1416 1415 1414 1413 1412 1411 1410 1410
1436 1435 1435 1434 1434 1433 1433 1433 1433 1433 1433 1433 1433 1433 1432 1432 1432 1432 1431 1431 1430 1430 1429 1428 1428 1427 1425 1424 1423 1422 1421 1420 1419 1418 1417 1416 1415 1414 1413 1412 1411 1410 1409 1409
1434 1433 1433 1432 1432 1432 1431 1431 1431 1430 1430 1430 1430 1431 1431 1430 1430 1430 1429 1429 1428 1428 1427 1427 1426 1425 1424 1423 1422 1420 1419 1418 1417 1416 1415 1414 1413 1412 1412 1411 1410 1409 1408 1407